[[{"header":{"parameterUnit":"m.s-1","parameterCategory":1,"la1":30.2991,"la2":30.254,"lo1":-89.0895,"lo2":-89.0444,"dy":0.0017,"dx":0.0017,"nx":28,"ny":28,"refTime":"2025-11-04T09:00:00:Z","depth":0,"parameterNumber":2,"parameterNumberName":"U-component_of_WINDS"},"data":[0,0,0,0,0,0,0,0,0,0,0,0,0,0,0,0,0,0,0,0,0,0,0,0,0,0,0,0,0,0,0,0,0,0,0,0,0,0,0,0,0,0,0,0,0,0,0,0,0,0,0,0,0,0,0,0,0,0,-0.0353,-0.0354,0,-0.0405,-0.0405,-0.0406,-0.0426,-0.0426,-0.0426,-0.0426,-0.0483,-0.0485,-0.0486,0,0,0,0,0,0,0,0,0,0,0,0,0,-0.0277,-0.0278,-0.0353,-0.0354,-0.0354,-0.0405,-0.0405,-0.0406,-0.0426,-0.0426,-0.0426,-0.0426,-0.0483,-0.0485,-0.0487,0,0,0,0,0,0,0,0,0,0,0,0,0,-0.0317,-0.0278,-0.0353,-0.037,-0.0372,-0.0404,-0.0405,-0.0406,-0.0426,-0.0426,-0.0426,-0.0426,-0.0482,-0.0484,-0.0487,-0.0507,0,0,-0.0495,-0.0496,0,0,0,0,0,0,0,0,-0.0315,-0.032,-0.0367,-0.0369,-0.0372,-0.0409,-0.04,-0.044,-0.0426,-0.0406,-0.0426,-0.0426,-0.0459,-0.0463,-0.0474,-0.051,-0.0512,-0.0495,-0.0496,-0.0497,-0.0498,0,0,0,0,0,0,0,-0.0312,-0.0318,-0.0374,-0.0368,-0.0371,-0.0377,-0.0383,-0.0407,-0.0433,-0.0408,-0.0409,-0.0415,-0.046,-0.0471,-0.0475,-0.0513,-0.0495,-0.0497,-0.0498,-0.0499,-0.0569,-0.057,0,0,0,0,0,0,-0.0306,-0.0316,-0.0372,-0.0375,-0.0342,-0.0379,-0.0385,-0.0397,-0.0433,-0.0438,-0.0415,-0.0416,-0.0467,-0.0472,-0.0477,-0.0504,-0.0497,-0.05,-0.0501,-0.0569,-0.0569,-0.057,0,0,0,0,0,0,-0.0304,-0.0311,-0.037,-0.0346,-0.0354,-0.038,-0.0394,-0.0398,-0.0409,-0.0438,-0.0444,-0.0421,-0.0467,-0.0474,-0.0499,-0.0506,-0.0501,-0.0503,-0.0569,-0.0569,-0.057,-0.0556,0,0,0,0,0,0,-0.0302,-0.031,-0.0317,-0.0346,-0.0355,-0.039,-0.0394,-0.0399,-0.0413,-0.0414,-0.0446,-0.0451,-0.0467,-0.0495,-0.0502,-0.0509,-0.0505,-0.0568,-0.0569,-0.0569,-0.0556,-0.0556,-0.0556,0,0,0,0,0,-0.0299,-0.0311,-0.0317,-0.0323,-0.0364,-0.039,-0.0395,-0.0413,-0.0413,-0.0421,-0.044,-0.045,-0.0504,-0.0498,-0.0505,-0.0514,-0.0568,-0.0569,-0.0569,-0.0556,-0.0556,-0.0556,0,0,0,0,0,0,-0.0284,-0.0316,-0.0322,-0.0344,-0.0364,-0.0393,-0.0403,-0.0412,-0.0434,-0.0434,-0.0457,-0.0464,-0.0488,-0.0503,-0.0496,-0.0535,-0.0537,-0.0539,-0.0524,-0.0524,-0.0524,-0.052,-0.0507,0,0,0,0,0,-0.0283,-0.03,-0.0327,-0.0344,-0.0354,-0.0377,-0.0389,-0.0401,-0.0423,-0.0432,-0.0453,-0.0475,-0.0498,-0.0512,-0.0534,-0.0558,-0.0566,-0.0568,-0.0568,-0.0568,-0.057,-0.0585,-0.0586,-0.0572,-0.0572,-0.0572,0,0,-0.0281,-0.0301,-0.031,-0.0342,-0.0358,-0.0377,-0.0384,-0.0403,-0.0418,-0.0435,-0.046,-0.0477,-0.0504,-0.0529,-0.0541,-0.0543,-0.0575,-0.0569,-0.0568,-0.0571,-0.0586,-0.0587,-0.0588,-0.0573,-0.0573,-0.0573,0,0,-0.0288,-0.0304,-0.032,-0.0336,-0.0361,-0.0377,-0.0381,-0.0409,-0.042,-0.0445,-0.0459,-0.0478,-0.0515,-0.0534,-0.0548,-0.0563,-0.0573,-0.057,-0.057,-0.0585,-0.0586,-0.0587,-0.0593,-0.0595,-0.0571,-0.0571,-0.0571,0,-0.0283,-0.031,-0.0327,-0.0346,-0.036,-0.0375,-0.0393,-0.0409,-0.044,-0.045,-0.0451,-0.0499,-0.0518,-0.0549,-0.0552,-0.0563,-0.0569,-0.0566,-0.0584,-0.0585,-0.0586,-0.0593,-0.0595,-0.0571,-0.0571,-0.0571,-0.0571,0,-0.0304,-0.0322,-0.0333,-0.0361,-0.0376,-0.0394,-0.0416,-0.0429,-0.044,-0.0456,-0.0482,-0.0506,-0.0533,-0.0541,-0.0553,-0.0574,-0.0574,-0.0579,-0.0581,-0.0587,-0.0593,-0.0595,-0.057,-0.057,-0.057,-0.0571,0,0,-0.0302,-0.034,-0.0343,-0.0357,-0.0386,-0.0402,-0.0421,-0.0446,-0.0458,-0.048,-0.0498,-0.0529,-0.0534,-0.0551,-0.0564,-0.0577,-0.0588,-0.0581,-0.0582,-0.0582,-0.0614,-0.0611,-0.0613,-0.0595,-0.0595,-0.0596,-0.0612,0,-0.0313,-0.0346,-0.0363,-0.039,-0.0408,-0.0423,-0.0441,-0.0461,-0.0477,-0.0496,-0.0514,-0.0536,-0.0541,-0.0551,-0.0564,-0.0584,-0.0595,-0.0583,-0.0613,-0.0614,-0.0606,-0.0616,-0.0612,-0.0626,-0.0615,-0.0615,-0.0615,0,-0.033,-0.035,-0.0378,-0.0406,-0.0414,-0.0429,-0.0454,-0.0472,-0.0496,-0.0507,-0.0525,-0.0539,-0.0562,-0.0561,-0.0594,-0.0586,-0.0599,-0.0611,-0.0612,-0.0616,-0.0615,-0.0621,-0.0631,-0.0633,-0.0619,-0.0619,-0.0619,0,-0.0327,-0.0361,-0.0383,-0.0394,-0.0426,-0.0436,-0.0451,-0.0475,-0.0489,-0.0512,-0.0522,-0.0547,-0.0562,-0.0582,-0.0602,-0.06,-0.0634,-0.0635,-0.0644,-0.0644,-0.0651,-0.065,-0.0664,-0.0659,-0.0659,-0.0659,-0.0659,0,-0.0337,-0.0354,-0.0381,-0.0395,-0.0415,-0.0434,-0.0454,-0.047,-0.0491,-0.051,-0.0525,-0.0542,-0.0568,-0.0588,-0.0605,-0.063,-0.0636,-0.0647,-0.0651,-0.0646,-0.0644,-0.0655,-0.0655,-0.0659,-0.0659,-0.0659,-0.0659,0,-0.0337,-0.0356,-0.038,-0.0409,-0.0416,-0.043,-0.0455,-0.047,-0.0486,-0.0509,-0.0516,-0.0542,-0.0567,-0.0589,-0.0623,-0.0634,-0.0661,-0.0666,-0.0652,-0.0654,-0.0662,-0.0662,-0.0684,-0.0689,-0.0679,-0.0679,-0.0679,0,-0.0343,-0.0356,-0.0386,-0.0398,-0.0412,-0.0432,-0.0446,-0.0467,-0.0482,-0.0511,-0.0522,-0.0548,-0.057,-0.061,-0.0633,-0.066,-0.0666,-0.0672,-0.067,-0.0665,-0.0667,-0.0666,-0.0668,-0.0672,-0.0672,-0.0672,-0.0672,0,-0.0351,-0.036,-0.0379,-0.0403,-0.0419,-0.0439,-0.0459,-0.0469,-0.0493,-0.051,-0.0535,-0.0552,-0.0586,-0.0612,-0.0641,-0.0658,-0.067,-0.0672,-0.0676,-0.0671,-0.0663,-0.0668,-0.0652,-0.0672,-0.0672,-0.0672,-0.0672,-0.0672,-0.0355,-0.0368,-0.039,-0.0412,-0.0429,-0.0448,-0.0463,-0.0481,-0.0502,-0.053,-0.0541,-0.0567,-0.0593,-0.0633,-0.065,-0.0672,-0.0674,-0.0679,-0.068,-0.0681,-0.0681,-0.0659,-0.0677,-0.0677,-0.0677,-0.0677,-0.0677,0,-0.0365,-0.038,-0.04,-0.0427,-0.0444,-0.0452,-0.0475,-0.049,-0.0512,-0.0534,-0.0555,-0.0585,-0.0611,-0.0636,-0.0663,-0.0676,-0.0682,-0.0683,-0.0683,-0.0687,-0.0677,-0.0671,-0.0678,-0.0678,-0.0678,-0.0678,-0.0677,-0.0677,-0.0372,-0.0394,-0.0406,-0.0437,-0.0453,-0.0477,-0.049,-0.0508,-0.0526,-0.0558,-0.0578,-0.0594,-0.0618,-0.0648,-0.0672,-0.0679,-0.0689,-0.0688,-0.0697,-0.0687,-0.0687,-0.0687,-0.0682,-0.069,-0.069,-0.0705,-0.0705,-0.0705]},{"header":{"parameterUnit":"m.s-1","parameterCategory":1,"la1":30.2991,"la2":30.254,"lo1":-89.0895,"lo2":-89.0444,"dy":0.0017,"dx":0.0017,"nx":28,"ny":28,"refTime":"2025-11-04T09:00:00:Z","depth":0,"parameterNumber":3,"parameterNumberName":"V-component_of_WINDS"},"data":[0,0,0,0,0,0,0,0,0,0,0,0,0,0,0,0,0,0,0,0,0,0,0,0,0,0,0,0,0,0,0,0,0,0,0,0,0,0,0,0,0,0,0,0,0,0,0,0,0,0,0,0,0,0,0,0,0,0,1.7945,1.7945,0,1.7917,1.7917,1.7916,1.7862,1.7861,1.786,1.7859,1.7831,1.7831,1.7831,0,0,0,0,0,0,0,0,0,0,0,0,0,1.7953,1.7953,1.7945,1.7945,1.7944,1.7917,1.7917,1.7916,1.7863,1.7861,1.786,1.7859,1.7831,1.7831,1.7831,0,0,0,0,0,0,0,0,0,0,0,0,0,1.794,1.7953,1.7945,1.7914,1.7911,1.7917,1.7917,1.7916,1.7863,1.7861,1.786,1.7858,1.7831,1.7831,1.7831,1.7865,0,0,1.7832,1.7832,0,0,0,0,0,0,0,0,1.7941,1.794,1.7919,1.7916,1.7913,1.7892,1.7909,1.7899,1.7863,1.7881,1.7859,1.7857,1.7852,1.7851,1.7849,1.7864,1.7862,1.7832,1.7832,1.7833,1.7833,0,0,0,0,0,0,0,1.7942,1.7941,1.7934,1.7919,1.7915,1.7902,1.7899,1.7907,1.7876,1.788,1.7876,1.7873,1.785,1.7849,1.7848,1.7862,1.7832,1.7833,1.7833,1.7833,1.7903,1.7904,0,0,0,0,0,0,1.7947,1.7942,1.7935,1.7933,1.7923,1.7903,1.7899,1.79,1.7876,1.787,1.7874,1.7871,1.7849,1.7848,1.7847,1.7883,1.7833,1.7833,1.7833,1.7901,1.7903,1.7905,0,0,0,0,0,0,1.7947,1.7947,1.7936,1.7936,1.7934,1.7905,1.7906,1.79,1.7899,1.7872,1.7866,1.7878,1.7848,1.7846,1.7861,1.7882,1.7833,1.7833,1.7899,1.7902,1.7904,1.7958,0,0,0,0,0,0,1.7948,1.7947,1.7959,1.7937,1.7934,1.795,1.7908,1.7901,1.7899,1.7894,1.7874,1.7869,1.7846,1.7861,1.7861,1.7881,1.7834,1.7897,1.79,1.7903,1.7954,1.7962,1.7969,0,0,0,0,0,1.7948,1.7975,1.796,1.796,1.7948,1.7951,1.795,1.7923,1.7901,1.7913,1.7896,1.787,1.788,1.7862,1.7863,1.7883,1.7896,1.7899,1.7903,1.7951,1.796,1.7968,0,0,0,0,0,0,1.8,1.7972,1.7954,1.7975,1.7966,1.7942,1.7956,1.7934,1.7931,1.7926,1.7893,1.7889,1.7908,1.7897,1.7878,1.7915,1.7884,1.7888,1.792,1.7929,1.7936,1.7937,1.7834,0,0,0,0,0,1.8015,1.8019,1.7994,1.8015,1.8011,1.7985,1.7985,1.7966,1.7955,1.7951,1.7935,1.7925,1.7926,1.7928,1.7927,1.7954,1.7948,1.7968,1.7976,1.7982,1.7984,1.7997,1.8005,1.7917,1.7917,1.7917,0,0,1.8043,1.8028,1.8033,1.8025,1.8016,1.8021,1.7982,1.7989,1.7993,1.7952,1.7963,1.7953,1.794,1.7961,1.7969,1.7952,1.8008,1.7986,1.7991,1.7991,1.8002,1.801,1.8017,1.792,1.7919,1.7919,0,0,1.8097,1.8088,1.8103,1.8095,1.8082,1.8064,1.8068,1.8048,1.8039,1.8051,1.802,1.8025,1.8028,1.802,1.8016,1.8071,1.8046,1.8072,1.8109,1.8122,1.8129,1.8134,1.8152,1.8159,1.8076,1.8076,1.8076,0,1.8134,1.8141,1.8114,1.8123,1.8121,1.8085,1.8101,1.8094,1.8082,1.8081,1.8064,1.8067,1.8056,1.8074,1.8087,1.8086,1.8089,1.8072,1.813,1.8136,1.8141,1.8157,1.8164,1.8079,1.8079,1.8078,1.8078,0,1.8186,1.8192,1.8207,1.8195,1.8195,1.8207,1.8183,1.8186,1.8168,1.8152,1.8165,1.8152,1.8148,1.8152,1.8134,1.8167,1.8157,1.8136,1.8103,1.8152,1.8167,1.8174,1.8083,1.8082,1.8081,1.8081,0,0,1.8269,1.8244,1.825,1.8244,1.8228,1.8232,1.8244,1.8241,1.8243,1.8237,1.8245,1.825,1.823,1.8226,1.8208,1.822,1.8262,1.8196,1.8195,1.8207,1.8297,1.8311,1.8319,1.8247,1.8248,1.8249,1.8297,0,1.8317,1.8335,1.8312,1.8335,1.8339,1.8307,1.8318,1.8309,1.8296,1.8299,1.8285,1.8288,1.8262,1.8259,1.827,1.8255,1.8279,1.8251,1.8253,1.8254,1.8254,1.8327,1.8342,1.8387,1.8303,1.8304,1.8305,0,1.8375,1.8372,1.8395,1.8378,1.8379,1.8389,1.8384,1.8387,1.8378,1.8368,1.8365,1.8343,1.8354,1.8325,1.834,1.8321,1.8322,1.8315,1.8316,1.8312,1.828,1.8323,1.8402,1.8407,1.8314,1.8313,1.8313,0,1.843,1.8432,1.8446,1.8442,1.8424,1.8431,1.8424,1.8413,1.8413,1.841,1.8409,1.8407,1.8406,1.8405,1.8384,1.8365,1.8401,1.837,1.8391,1.8392,1.8397,1.8396,1.8474,1.8403,1.8403,1.8402,1.8402,0,1.8485,1.85,1.847,1.8478,1.8494,1.847,1.8486,1.8476,1.8467,1.8473,1.8446,1.8453,1.8425,1.8429,1.8413,1.8426,1.8427,1.8418,1.8413,1.8419,1.842,1.8416,1.8411,1.8404,1.8404,1.8403,1.8403,0,1.8547,1.8528,1.8541,1.8523,1.8519,1.8532,1.8516,1.8524,1.8511,1.8518,1.8519,1.8498,1.8501,1.8481,1.848,1.8469,1.849,1.8481,1.8492,1.8488,1.8509,1.8507,1.8585,1.8593,1.8519,1.852,1.8521,0,1.8581,1.8592,1.8576,1.8578,1.8572,1.8576,1.8576,1.8553,1.8554,1.8545,1.8553,1.8555,1.8553,1.856,1.8545,1.8544,1.8533,1.8561,1.8533,1.8538,1.8531,1.8529,1.853,1.8566,1.8567,1.8567,1.8568,0,1.8644,1.8634,1.8635,1.8633,1.8634,1.8631,1.8626,1.863,1.8605,1.8608,1.8611,1.861,1.861,1.8611,1.8608,1.8601,1.858,1.8578,1.8582,1.8586,1.8591,1.8587,1.8505,1.8575,1.8574,1.8574,1.8573,1.8573,1.8691,1.8699,1.8689,1.8691,1.8686,1.8683,1.8688,1.8677,1.8679,1.8676,1.8664,1.8669,1.8661,1.8654,1.865,1.8653,1.864,1.8647,1.8648,1.8649,1.8652,1.8594,1.8653,1.8653,1.8653,1.8653,1.8652,0,1.875,1.8743,1.8745,1.874,1.8742,1.8724,1.8719,1.8721,1.8726,1.872,1.8721,1.8724,1.8726,1.8712,1.8712,1.8718,1.8708,1.8718,1.8716,1.8714,1.8665,1.866,1.8726,1.8726,1.8726,1.8726,1.8726,1.8726,1.8781,1.8793,1.8783,1.8793,1.8785,1.879,1.8789,1.8786,1.8781,1.8786,1.8787,1.8779,1.877,1.8769,1.877,1.8766,1.8766,1.8779,1.8771,1.8725,1.8718,1.8711,1.8706,1.878,1.878,1.8819,1.882,1.882]}]]